Weather History for Phillips, WI

Change the Weather History Date:

Saturday, April 5, 2014

  Actual Average Record
Temperature  
Mean Temperature 24 °F -  
Max Temperature 41 °F 45 °F 73 °F (2005)
Min Temperature 6 °F 25 °F 6 °F (2014)
Degree Days  
Heating Degree Days 42    
Moisture  
Dew Point 22 °F    
Average Humidity 65    
Maximum Humidity 97    
Minimum Humidity 47    
Precipitation  
Precipitation 0.00 in - - ()
Sea Level Pressure  
Sea Level Pressure 30.01 in    
Wind  
Wind Speed 3 mph (SSW)    
Max Wind Speed 16 mph    
Max Gust Speed 20 mph    
Visibility 8 miles    
Events Fog    
Averages and records for this station are not official NWS values.
T = Trace of Precipitation, MM = Missing Value Source: NWS Daily Summary

Daily Weather History Graph

Daily Weather History Graph

Search for Another Location

Airport:

Trip Planner

Search our weather history database for the weather conditions in past years. The results will help you decide how hot, cold, wet, or windy it might be!

Date:

Astronomy

Apr. 05, 2014 Rise Set
Actual Time 6:34 AM CDT 7:35 PM CDT
Civil Twilight 6:03 AM CDT 8:05 PM CDT
Nautical Twilight 5:27 AM CDT 8:41 PM CDT
Astronomical Twilight 4:49 AM CDT 9:20 PM CDT
Moon 10:31 AM CDT (4/5) 12:55 AM CDT (4/5)
Length of Visible Light 14h 01m
Length of Day
13h 01m
Waxing Crescent, 34% of the Moon is Illuminated
Apr 5
Waxing Crescent
Apr 7
First Quarter
Apr 15
Full
Apr 22
Last Quarter
Apr 29
New

Hourly Weather History & Observations

Time (CDT) Temp. Windchill Dew Point Humidity Pressure Visibility Wind Dir Wind Speed Gust Speed Precip Events Conditions
12:15 AM 21.2 °F - 19.9 °F 95% 29.94 in 10.0 mi Calm Calm - N/A   Clear
12:35 AM 18.3 °F - 17.1 °F 95% 29.94 in 10.0 mi Calm Calm - N/A   Clear
12:55 AM 14.4 °F - 13.6 °F 97% 29.95 in 1.0 mi Calm Calm - N/A   Mist
1:15 AM 12.4 °F - 10.9 °F 94% 29.96 in 0.8 mi Calm Calm - N/A   Mist
1:35 AM 12.4 °F - 11.1 °F 95% 29.96 in 3.0 mi Calm Calm - N/A   Clear
1:55 AM 12.0 °F - 10.8 °F 95% 29.96 in 0.2 mi Calm Calm - N/A Fog Light Freezing Fog
2:15 AM 10.9 °F - 9.1 °F 92% 29.96 in 0.2 mi Calm Calm - N/A Fog Light Freezing Fog
2:35 AM 6.4 °F - 4.1 °F 90% 29.97 in 0.2 mi Calm Calm - N/A Fog Light Freezing Fog
2:55 AM 8.1 °F - 5.7 °F 90% 29.97 in 0.5 mi Calm Calm - N/A Fog Light Freezing Fog
3:15 AM - - - N/A% 29.98 in 0.5 mi Calm Calm - N/A Fog Fog
3:35 AM - - - N/A% 29.98 in 0.5 mi Calm Calm - N/A Fog Fog
3:55 AM - - - N/A% 29.98 in 0.2 mi Calm Calm - N/A Fog Fog
4:15 AM - - - N/A% 29.99 in 0.8 mi Calm Calm - N/A   Mist
4:35 AM - - - N/A% 29.99 in 7.0 mi Calm Calm - N/A   Scattered Clouds
4:55 AM - - - N/A% 29.99 in 10.0 mi Calm Calm - N/A   Scattered Clouds
5:15 AM - - - N/A% 30.00 in 10.0 mi Calm Calm - N/A   Scattered Clouds
5:35 AM - - - N/A% 30.00 in 10.0 mi Calm Calm - N/A   Mostly Cloudy
5:55 AM - - - N/A% 30.02 in 0.5 mi Calm Calm - N/A Fog Fog
6:15 AM - - - N/A% 30.02 in 2.0 mi Calm Calm - N/A   Mostly Cloudy
6:35 AM - - - N/A% 30.03 in 10.0 mi Calm Calm - N/A   Clear
6:55 AM - - - N/A% 30.04 in 10.0 mi Calm Calm - N/A   Clear
7:15 AM - - - N/A% 30.04 in 10.0 mi Calm Calm - N/A   Clear
7:35 AM - - - N/A% 30.04 in 10.0 mi Calm Calm - N/A   Clear
7:55 AM - - - N/A% 30.05 in 10.0 mi Calm Calm - N/A   Clear
8:15 AM - - - N/A% 30.05 in 10.0 mi Calm Calm - N/A   Clear
8:35 AM - - - N/A% 30.06 in 10.0 mi Calm Calm - N/A   Clear
8:55 AM - - - N/A% 30.06 in 10.0 mi Calm Calm - N/A   Clear
9:15 AM - - - N/A% 30.07 in 10.0 mi Calm Calm - N/A   Clear
9:35 AM - - - N/A% 30.07 in 10.0 mi Calm Calm - N/A   Clear
9:55 AM - - - N/A% 30.06 in 10.0 mi Calm Calm - N/A   Clear
10:15 AM 27.0 °F - 26.2 °F 97% 30.06 in 10.0 mi Calm Calm - N/A   Clear
10:35 AM 28.6 °F - 27.1 °F 94% 30.06 in 10.0 mi Calm Calm - N/A   Clear
10:55 AM 31.3 °F - 28.2 °F 88% 30.07 in 10.0 mi Calm Calm - N/A   Clear
11:15 AM 35.1 °F 27.9 °F 25.2 °F 67% 30.07 in 10.0 mi SW 9.2 mph - N/A   Clear
11:35 AM 36.5 °F 30.3 °F 24.3 °F 61% 30.06 in 10.0 mi SW 8.1 mph - N/A   Clear
11:55 AM 36.9 °F 30.1 °F 23.9 °F 59% 30.06 in 10.0 mi SW 9.2 mph - N/A   Clear
12:15 PM 37.6 °F 31.0 °F 23.5 °F 57% 30.06 in 10.0 mi SW 9.2 mph - N/A   Clear
12:35 PM 38.7 °F 32.9 °F 22.5 °F 52% 30.05 in 10.0 mi SW 8.1 mph 16.1 mph N/A   Clear
12:55 PM 38.8 °F 31.6 °F 21.6 °F 50% 30.05 in 10.0 mi SW 11.5 mph 16.1 mph N/A   Clear
1:15 PM 39.6 °F 32.1 °F 21.6 °F 49% 30.05 in 10.0 mi WSW 12.7 mph - N/A   Clear
1:35 PM 39.7 °F 33.2 °F 21.4 °F 48% 30.04 in 10.0 mi SW 10.4 mph - N/A   Clear
1:55 PM 40.1 °F 32.7 °F 22.6 °F 50% 30.04 in 10.0 mi SW 12.7 mph - N/A   Clear
2:15 PM 40.1 °F 33.2 °F 23.5 °F 52% 30.04 in 10.0 mi SSW 11.5 mph - N/A   Clear
2:35 PM 40.5 °F 33.6 °F 23.2 °F 50% 30.04 in 10.0 mi SW 11.5 mph 16.1 mph N/A   Clear
2:55 PM 40.5 °F 34.1 °F 23.9 °F 52% 30.04 in 10.0 mi WSW 10.4 mph 19.6 mph N/A   Clear
3:15 PM 41.0 °F 33.9 °F 24.3 °F 51% 30.03 in 10.0 mi SSW 12.7 mph 17.3 mph N/A   Clear
3:35 PM 41.0 °F 34.7 °F 24.1 °F 51% 30.03 in 10.0 mi SW 10.4 mph - N/A   Clear
3:55 PM 41.0 °F 32.8 °F 22.3 °F 47% 30.02 in 10.0 mi SW 16.1 mph - N/A   Clear
4:15 PM 41.4 °F 34.3 °F 23.2 °F 48% 30.02 in 10.0 mi SW 12.7 mph 16.1 mph N/A   Clear
4:35 PM 41.5 °F 35.0 °F 23.2 °F 48% 30.01 in 10.0 mi SSW 11.5 mph - N/A   Clear
4:55 PM 41.2 °F 35.0 °F 22.6 °F 48% 30.01 in 10.0 mi SW 10.4 mph - N/A   Clear
5:15 PM 41.5 °F 35.0 °F 22.8 °F 47% 30.01 in 10.0 mi SW 11.5 mph - N/A   Clear
5:35 PM 41.0 °F 33.9 °F 22.6 °F 48% 30.00 in 10.0 mi SW 12.7 mph - N/A   Clear
5:55 PM 41.0 °F 34.3 °F 22.8 °F 48% 30.00 in 10.0 mi SW 11.5 mph - N/A   Clear
6:15 PM 41.0 °F 34.3 °F 23.0 °F 49% 30.00 in 10.0 mi SW 11.5 mph - N/A   Clear
6:35 PM 40.6 °F 34.3 °F 23.2 °F 50% 30.00 in 10.0 mi SW 10.4 mph - N/A   Clear
6:55 PM 40.1 °F 34.1 °F 22.3 °F 49% 30.00 in 10.0 mi SW 9.2 mph - N/A   Clear
7:35 PM 38.7 °F 33.6 °F 23.7 °F 55% 30.00 in 10.0 mi SSW 6.9 mph - N/A   Clear
7:55 PM 37.4 °F 33.8 °F 23.9 °F 58% 30.00 in 10.0 mi SSW 4.6 mph - N/A   Clear
8:15 PM 37.0 °F 33.3 °F 23.9 °F 59% 30.00 in 10.0 mi SSW 4.6 mph - N/A   Clear
8:35 PM 36.0 °F 32.1 °F 24.4 °F 63% 30.00 in 10.0 mi South 4.6 mph - N/A   Clear
8:55 PM 34.3 °F 31.4 °F 24.6 °F 68% 30.00 in 10.0 mi South 3.5 mph - N/A   Clear
9:15 PM 34.9 °F 32.0 °F 24.8 °F 67% 30.00 in 10.0 mi South 3.5 mph - N/A   Clear
9:35 PM 34.0 °F 28.8 °F 24.6 °F 69% 30.00 in 10.0 mi South 5.8 mph - N/A   Clear
9:55 PM 33.8 °F 29.6 °F 24.4 °F 69% 30.00 in 10.0 mi SSW 4.6 mph - N/A   Clear
10:15 PM 34.0 °F 29.8 °F 24.4 °F 68% 30.00 in 10.0 mi SSW 4.6 mph - N/A   Clear
10:35 PM 34.5 °F 29.4 °F 24.8 °F 68% 30.00 in 10.0 mi SSW 5.8 mph - N/A   Clear
10:55 PM 34.2 °F 29.0 °F 24.8 °F 69% 29.99 in 10.0 mi South 5.8 mph - N/A   Clear
11:15 PM 36.0 °F 30.3 °F 26.1 °F 67% 29.99 in 10.0 mi SSW 6.9 mph - N/A   Mostly Cloudy
11:35 PM 36.9 °F 30.1 °F 27.3 °F 68% 29.98 in 10.0 mi South 9.2 mph - N/A   Overcast
11:55 PM 38.3 °F 32.5 °F 27.5 °F 65% 29.99 in 10.0 mi SW 8.1 mph - N/A   Overcast